Regional Weather Roundup
Issued by NWS

Home | Current Version | Previous Version | Graphics & Text | Print | Product List | Glossary On
Versions: 1 2 3 4 5 6 7 8 9 10 11 12 13 14 15 16 17 18 19 20 21 22 23 24 25 26 27
000
ASUS45 KBOU 231007
RWRCO

WEATHER ROUNDUP FOR COLORADO
NATIONAL WEATHER SERVICE DENVER/BOULDER CO
400 AM MDT TUE MAY 23 2017

NOTE: "FAIR" INDICATES FEW OR NO CLOUDS BELOW 12000 FEET WITH NO
SIGNIFICANT WEATHER AND/OR OBSTRUCTIONS TO VISIBILITY.

COZ001>005-013-030-031-231100-
...NORTHWEST COLORADO...

CITY           SKY/WX    TMP DP  RH WIND       PRES   REMARKS
CRAIG          MOCLDY    32  29  88 CALM      30.34S
HAYDEN         CLOUDY    34  30  86 CALM      30.33S
MEEKER         FAIR      32  31  96 CALM      30.32F
RABBIT EARS PA CLOUDY    27  25  93 W6        30.35S FOG     WCI  20
STEAMBOAT SPGS FAIR      33  32  97 SW5       30.32S WCI  28
WALDEN           N/A     32  28  86 N3        30.33F
$$

COZ006>008-011-231100-
...WEST CENTRAL VALLEYS...

CITY           SKY/WX    TMP DP  RH WIND       PRES   REMARKS
GRAND JUNCTION FAIR      48  31  51 NW7       30.25R
MONTROSE       FAIR      47  45  93 E7        30.26F
EAGLE          CLOUDY    36  34  92 SE5       30.35R
RIFLE          FAIR      42  35  76 SE3       30.29S
DELTA          FAIR      50  41  71 N8        30.23S
NUCLA          FAIR      52  32  46 CALM      30.26F
$$

COZ017>023-064>068-231100-
...SOUTHWEST COLORADO...

CITY           SKY/WX    TMP DP  RH WIND       PRES   REMARKS
DURANGO        FAIR      51  30  44 NW13      30.16F
CORTEZ         FAIR      46  37  71 NE5       30.18S
PAGOSA SPRINGS FAIR      47  28  47 CALM      30.21S
TELLURIDE      FAIR      38  37  95 CALM      30.33F
WOLF CREEK PAS FAIR      27  23  86 NW12G21   30.37F FOG     WCI  16
$$

COZ009-010-012-014-032>034-037-058>063-231100-
...CENTRAL COLORADO...

CITY           SKY/WX    TMP DP  RH WIND       PRES   REMARKS
ASPEN          FAIR      33  32  96 VRB3      30.30S
BUENA VISTA    FAIR      34  30  84 N5        30.28R WCI  30
COPPER MTN     CLOUDY    25  19  80 MISG      30.34S HAZE
BERTHOUD PASS  CLOUDY    18   5  57 MISG      30.31S
COTTONWOOD PAS FAIR      32  28  86 NW3       30.30R
GUNNISON       FAIR      38  33  82 CALM      30.26R
KREMMLING      CLOUDY    37  34  87 CALM      30.33S
LEADVILLE      MOCLDY    26  21  81 N6        30.30S WCI  19
MONARCH PASS   FOG       23  21  93 N8        30.43S VSB 1   WCI  14
SALIDA         FAIR      37  35  92 W3        30.35S
SUNLIGHT       FAIR      23  23 100 NE3       30.40R
WILKERSON PASS MOCLDY    23  21  93 N7        30.33S WCI  15
$$

COZ069>075-231100-
...SAN LUIS VALLEY/SANGRE DE CRISTO MOUNTAINS...

CITY           SKY/WX    TMP DP  RH WIND       PRES   REMARKS
ALAMOSA        CLOUDY    40  35  83 VRB6      30.22R
DEL NORTE      MOCLDY    37  32  82 SE3       30.23F
LA VETA PASS   HVY SNOW  27  23  86 E3        30.40S VSB 1/4
SAGUACHE       FAIR      34  32  93 N9        30.25R WCI  26
$$

COZ035-036-038>040-231100-
...NORTHERN COLORADO FRONT RANGE...

CITY           SKY/WX    TMP DP  RH WIND       PRES   REMARKS
DENVER INTL AP MOCLDY    43  35  73 W9        30.23F
DMNS CITY PARK   N/A     40  38  94 SW3       30.24S
AURORA         PTCLDY    39  37  94 W6        30.24F
FRONT RANGE AP MOCLDY    41  37  87 NW7       30.23F
ERIE MUNI ARPT MOCLDY    40  38  95 CALM      30.23F
BOULDER MUN AP FAIR      41  37  87 CALM      30.23S
CENTENNIAL     FAIR      39  36  89 W5        30.24S
BROOMFIELD     MOCLDY    41  34  75 W8        30.24F
FORT COLLINS   FAIR      44  36  73 N5        30.23F
LONGMONT       MOCLDY    41  36  81 CALM      30.25S
$$

COZ041-046-047-076>085-087-088-231100-
...PIKES PEAK/PALMER DIVIDE AND SOUTHERN FOOTHILLS...

CITY           SKY/WX    TMP DP  RH WIND       PRES   REMARKS
COLO. SPRINGS  FAIR      41  32  70 NW9       30.25R
A. F. ACADEMY  FAIR      37  31  81 N8        30.23S
SCHRIEVER AFB  FAIR      38  32  79 W9        30.24R
CHEYENNE MTN   FAIR      39  27  62 S3        30.19R
ELLICOTT       FAIR     N/A N/A N/A NW5       30.22R
FALCON         FAIR      37  32  84 NW10      30.24R
FORT CARSON    FAIR      40  32  70 W7        30.23S
LIMON          FAIR      37  35  92 NW17      30.19F
MONUMENT HILL  MOCLDY    32  32 100 NW9       30.26S WCI  24
CANON CITY     NOT AVBL
WALSENBURG     CLOUDY    41  37  87 SW13      30.25F
TRINIDAD       CLOUDY    40  36  86 W9        30.24F
$$

COZ042>045-048>051-090-091-231100-
...NORTHEAST COLORADO...

CITY           SKY/WX    TMP DP  RH WIND       PRES   REMARKS
GREELEY ARPT   CLOUDY    45  37  73 NW10      30.22F
AKRON          FAIR      36  32  85 W10       30.17F
BURLINGTON     FAIR      41  38  89 NW13      30.15S
WRAY           FAIR      41  37  87 NW10      30.14F
YUMA           FAIR      37  36  93 W9        30.16S
STERLING       FAIR      41  37  87 NW9       30.16S
HOLYOKE        NOT AVBL
FORT MORGAN    FAIR      41  34  76 NW13      30.19F
$$

COZ086-089-092>099-231100-
...SOUTHEAST COLORADO...

CITY           SKY/WX    TMP DP  RH WIND       PRES   REMARKS
PUEBLO         FAIR      47  39  74 VRB3      30.22S
LA JUNTA       MOCLDY    45  41  86 W5        30.21R
LAMAR          FAIR      42  37  82 W8        30.17R
SPRINGFIELD      N/A     41  38  89 NW9       30.16F
$$




USA.gov is the U.S. government's official web portal to all federal, state and local government web resources and services.